OE3UKW Weather Reports


time (UTC)temp
C
wind
direction
speed
KPH
gust
KPH
rain 1hr
cm
rain 24hr
cm
rain mn
cm
humidity
%
barometer
mb
20260505192111 18 140 16.1 25.7 0.00 0.00 0.00 45 1006.5
20260505191110 18 150 14.5 25.7 0.00 0.00 0.00 44 1006.5
20260505190110 18 162 19.3 29.0 0.00 0.00 0.00 43 1006.5
20260505185110 18 136 17.7 25.7 0.00 0.00 0.00 43 1006.5
20260505184111 19 174 19.3 33.8 0.00 0.00 0.00 41 1006.4
20260505183110 19 160 16.1 25.7 0.00 0.00 0.00 41 1006.4
20260505182110 20 166 16.1 27.4 0.00 0.00 0.00 40 1006.5
20260505181110 20 154 22.5 30.6 0.00 0.00 0.00 40 1006.3
20260505180110 20 159 20.9 35.4 0.00 0.00 0.00 39 1006.3
20260505175110 20 157 17.7 35.4 0.00 0.00 0.00 38 1006.3
20260505174110 20 159 17.7 30.6 0.00 0.00 0.00 38 1006.3
20260505173125 21 164 16.1 33.8 0.00 0.00 0.00 38 1006.3
20260505172110 21 138 17.7 37.0 0.00 0.00 0.00 37 1006.3
20260505171110 21 173 20.9 38.6 0.00 0.00 0.00 37 1006.2
20260505170110 21 144 19.3 35.4 0.00 0.00 0.00 36 1006.3
20260505165110 21 124 27.4 40.2 0.00 0.00 0.00 35 1006.3
20260505164110 22 156 14.5 35.4 0.00 0.00 0.00 34 1006.5
20260505163110 22 148 25.7 40.2 0.00 0.00 0.00 33 1006.6
20260505162110 23 134 24.1 41.8 0.00 0.00 0.00 32 1006.5
20260505161110 23 160 17.7 38.6 0.00 0.00 0.00 31 1006.5
20260505160110 24 182 27.4 51.5 0.00 0.00 0.00 30 1006.5
20260505153110 25 163 41.8 56.3 0.00 0.00 0.00 26 1006.4
20260505152110 26 198 33.8 54.7 0.00 0.00 0.00 26 1006.4
20260505151110 26 171 29.0 51.5 0.00 0.00 0.00 26 1006.3
20260505150110 26 165 30.6 62.8 0.00 0.00 0.00 24 1006.3
20260505140110 27 173 24.1 41.8 0.00 0.00 0.00 23 1006.9
20260505130110 27 167 20.9 53.1 0.00 0.00 0.00 17 1007.3
20260505124110 27 161 35.4 48.3 0.00 0.00 0.00 17 1007.8
20260505123110 27 192 29.0 48.3 0.00 0.00 0.00 18 1007.8
20260505122109 27 130 27.4 46.7 0.00 0.00 0.00 19 1008.1
20260505120111 26 166 14.5 40.2 0.00 0.00 0.00 23 1008.3
20260505115111 26 175 24.1 37.0 0.00 0.00 0.00 22 1008.5
20260505114111 26 159 24.1 48.3 0.00 0.00 0.00 21 1008.7
20260505113111 26 184 25.7 46.7 0.00 0.00 0.00 21 1008.6
20260505112111 26 175 22.5 40.2 0.00 0.00 0.00 25 1008.8
20260505111111 25 152 30.6 41.8 0.00 0.00 0.00 25 1008.8
20260505110111 25 138 30.6 38.6 0.00 0.00 0.00 25 1009.0
20260505102111 24 130 22.5 37.0 0.00 0.00 0.00 31 1009.3
20260505101110 23 145 25.7 29.0 0.00 0.00 0.00 32 1009.5
20260505100110 23 115 20.9 32.2 0.00 0.00 0.00 32 1009.7
20260505095110 23 140 19.3 38.6 0.00 0.00 0.00 34 1010.0
20260505094110 22 141 19.3 30.6 0.00 0.00 0.00 35 1010.1
20260505093110 21 146 14.5 29.0 0.00 0.00 0.00 35 1010.1
20260505092110 21 156 11.3 22.5 0.00 0.00 0.00 37 1010.2
20260505091110 21 165 11.3 22.5 0.00 0.00 0.00 39 1010.2
20260505090110 21 150 19.3 27.4 0.00 0.00 0.00 38 1010.2
20260505085110 21 174 20.9 30.6 0.00 0.00 0.00 38 1010.3
20260505084110 21 175 17.7 35.4 0.00 0.00 0.00 37 1010.3
20260505083110 20 146 17.7 25.7 0.00 0.00 0.00 38 1010.4
20260505082110 20 169 17.7 24.1 0.00 0.00 0.00 40 1010.4
20260505081110 18 155 14.5 24.1 0.00 0.00 0.00 44 1010.4
20260505080110 18 162 14.5 20.9 0.00 0.00 0.00 42 1010.5
20260505075110 18 154 16.1 19.3 0.00 0.00 0.00 44 1010.5
20260505074110 18 147 14.5 22.5 0.00 0.00 0.00 43 1010.4
20260505073110 18 176 19.3 24.1 0.00 0.00 0.00 42 1010.6
20260505072110 18 162 19.3 24.1 0.00 0.00 0.00 42 1010.6
20260505071110 18 163 12.9 22.5 0.00 0.00 0.00 41 1010.6
20260505070110 18 119 16.1 22.5 0.00 0.00 0.00 42 1010.6
20260505065110 17 175 14.5 19.3 0.00 0.00 0.00 43 1010.6
20260505064110 17 140 16.1 25.7 0.00 0.00 0.00 43 1010.6
20260505063110 16 120 20.9 25.7 0.00 0.00 0.00 45 1010.6
20260505062110 16 170 12.9 24.1 0.00 0.00 0.00 46 1010.6
20260505061110 15 168 17.7 24.1 0.00 0.00 0.00 47 1010.5
20260505060110 15 134 11.3 14.5 0.00 0.00 0.00 51 1010.5
20260505055110 14 138 14.5 17.7 0.00 0.00 0.00 52 1010.4
20260505054110 13 169 9.7 12.9 0.00 0.00 0.00 52 1010.4
20260505053110 13 156 6.4 12.9 0.00 0.00 0.00 54 1010.5
20260505052110 12 155 4.8 9.7 0.00 0.00 0.00 56 1010.5
20260505051110 12 180 6.4 11.3 0.00 0.00 0.00 56 1010.5
20260505050110 12 172 8.0 12.9 0.00 0.00 0.00 55 1010.3
20260505041110 11 173 12.9 16.1 0.00 0.00 0.00 55 1010.3
20260505040110 10 152 6.4 12.9 0.00 0.00 0.00 56 1010.2
20260505035110 10 143 9.7 14.5 0.00 0.00 0.00 56 1010.3
20260505034109 10 179 8.0 12.9 0.00 0.00 0.00 57 1010.3
20260505033109 10 360 8.0 14.5 0.00 0.00 0.00 58 1010.3
20260505032110 9 162 8.0 11.3 0.00 0.00 0.00 58 1010.3
20260505031110 9 150 6.4 12.9 0.00 0.00 0.00 57 1010.3
20260505030110 10 150 8.0 9.7 0.00 0.00 0.00 56 1010.4
20260505025109 10 161 0.0 0.0 0.00 0.00 0.00 56 1010.6
20260505024109 10 161 0.0 3.2 0.00 0.00 0.00 55 1010.5
20260505023109 10 161 1.6 6.4 0.00 0.00 0.00 55 1010.6
20260505022109 10 161 8.0 9.7 0.00 0.00 0.00 55 1010.6
20260505021109 10 167 8.0 9.7 0.00 0.00 0.00 55 1010.7
20260505020109 10 145 4.8 4.8 0.00 0.00 0.00 54 1010.9
20260505015109 10 144 3.2 4.8 0.00 0.00 0.00 53 1010.8
20260505014109 11 152 6.4 8.0 0.00 0.00 0.00 51 1010.8
20260505013109 11 144 6.4 8.0 0.00 0.00 0.00 50 1010.9
20260505012109 12 156 6.4 8.0 0.00 0.00 0.00 49 1011.0
20260505011109 12 129 6.4 12.9 0.00 0.00 0.00 48 1011.0
20260505010109 13 138 4.8 11.3 0.00 0.00 0.00 47 1011.2
20260505005110 13 136 9.7 12.9 0.00 0.00 0.00 46 1011.2
20260505004110 13 149 4.8 9.7 0.00 0.00 0.00 45 1011.3
20260505003110 14 155 11.3 14.5 0.00 0.00 0.00 44 1011.1
20260505002110 14 117 9.7 14.5 0.00 0.00 0.00 44 1011.4
20260505001110 14 121 14.5 17.7 0.00 0.00 0.00 43 1011.4
20260505000110 15 132 11.3 12.9 0.00 0.00 0.00 42 1011.5
20260504235110 15 127 8.0 12.9 0.00 0.00 0.00 42 1011.6
20260504234109 15 151 9.7 16.1 0.00 0.00 0.00 41 1011.8
20260504233109 15 152 8.0 12.9 0.00 0.00 0.00 40 1012.0
20260504232109 16 146 9.7 16.1 0.00 0.00 0.00 40 1011.8
20260504231109 16 134 4.8 12.9 0.00 0.00 0.00 39 1011.8
20260504230109 16 146 9.7 16.1 0.00 0.00 0.00 39 1011.8
20260504225109 16 143 17.7 22.5 0.00 0.00 0.00 39 1011.9
20260504224109 16 158 12.9 19.3 0.00 0.00 0.00 38 1012.1
20260504223109 16 150 9.7 17.7 0.00 0.00 0.00 38 1012.2
20260504222109 16 130 11.3 17.7 0.00 0.00 0.00 37 1012.2
20260504221109 16 126 11.3 17.7 0.00 0.00 0.00 36 1012.2
20260504220109 17 147 14.5 22.5 0.00 0.00 0.00 36 1012.2
20260504215109 17 155 17.7 22.5 0.00 0.00 0.00 35 1012.3
20260504214109 17 136 11.3 22.5 0.00 0.00 0.00 35 1012.2
20260504213109 17 130 16.1 25.7 0.00 0.00 0.00 35 1012.3
20260504212109 17 150 14.5 19.3 0.00 0.00 0.00 35 1012.4
20260504211109 17 126 11.3 14.5 0.00 0.00 0.00 35 1012.5
20260504210109 17 134 9.7 16.1 0.00 0.00 0.00 34 1012.5
20260504205109 17 122 8.0 16.1 0.00 0.00 0.00 34 1012.5
20260504204109 17 138 12.9 20.9 0.00 0.00 0.00 34 1012.5
20260504203109 17 138 16.1 20.9 0.00 0.00 0.00 34 1012.5
20260504202114 17 154 14.5 20.9 0.00 0.00 0.00 33 1012.6
20260504201114 17 153 12.9 17.7 0.00 0.00 0.00 33 1012.5
20260504200114 18 146 12.9 19.3 0.00 0.00 0.00 33 1012.7
20260504195114 18 142 11.3 17.7 0.00 0.00 0.00 32 1012.7
20260504194114 18 148 11.3 19.3 0.00 0.00 0.00 32 1012.7
20260504193114 18 128 14.5 19.3 0.00 0.00 0.00 31 1012.6